Stations météo

Publicité
Rheinstetten, Allemagne (10731): Température de l'air & dewpoint: 15.06.2018 18:00:00 - 21.06.2018 18:00:00 (CEST)Rheinstetten, Allemagne (10731): Température de l'air 5cm & Température de l'air -5cm: 15.06.2018 18:00:00 - 21.06.2018 18:00:00 (CEST)Rheinstetten, Allemagne (10731): Température de l'air -20cm & Température de l'air -100cm: 15.06.2018 18:00:00 - 21.06.2018 18:00:00 (CEST)Rheinstetten, Allemagne (10731): Vitesse du vent & gusts: 15.06.2018 18:00:00 - 21.06.2018 18:00:00 (CEST)Rheinstetten, Allemagne (10731): Direction du vent: 15.06.2018 18:00:00 - 21.06.2018 18:00:00 (CEST)Rheinstetten, Allemagne (10731): reduced air pressure: 15.06.2018 18:00:00 - 21.06.2018 18:00:00 (CEST)Rheinstetten, Allemagne (10731): visibility: 15.06.2018 18:00:00 - 21.06.2018 18:00:00 (CEST)Rheinstetten, Allemagne (10731): Ensoleillement: 15.06.2018 18:00:00 - 21.06.2018 18:00:00 (CEST)Rheinstetten, Allemagne (10731): Quantités de précipitations: 15.06.2018 18:00:00 - 21.06.2018 18:00:00 (CEST)
Date & Time tt [°C] td [°C] tt 5cm [°C] tt -5cm [°C] tt -20cm [°C] tt -100cm [°C] ff [km/h] ff [knt] fx [km/h] fx [knt] dd ppp [hPa] vv [km] sd [min] rr [mm]
21.06.2018 18:00:00 - - - - - - - - - - - - - - -
21.06.2018 17:00:00 24,1 14,1 26,2 32,1 29,9 21,6 18 10 26 14 W 1017,0 56 4 0,0
21.06.2018 16:00:00 23,7 14,0 24,9 34,5 29,8 21,6 14 8 42 23 NW 1016,8 58 17 0,0
21.06.2018 15:00:00 25,5 12,0 27,7 37,7 29,0 21,6 28 15 44 24 W 1016,2 24 56 0,0
21.06.2018 14:00:00 27,1 12,6 31,6 36,8 28,0 21,6 26 14 44 24 W 1016,1 16 54 0,0
21.06.2018 13:00:00 27,0 12,8 30,3 34,5 27,1 21,5 22 12 38 21 W 1016,2 25 58 0,0
21.06.2018 12:00:00 25,7 13,0 28,2 32,8 26,2 21,5 24 13 36 19 W 1016,6 25 60 0,0
21.06.2018 11:00:00 24,9 13,7 27,4 30,6 25,5 21,5 16 9 35 19 W 1016,3 43 57 0,0
21.06.2018 10:00:00 24,2 15,2 26,3 28,1 24,9 21,4 16 9 29 16 WSW 1016,4 23 60 0,0
21.06.2018 09:00:00 22,6 15,7 24,3 25,0 24,7 21,4 19 10 29 16 SW 1016,3 19 50 0,0
21.06.2018 08:00:00 21,2 15,8 21,5 23,3 24,8 21,4 22 12 32 17 SW 1016,4 21 56 0,0
21.06.2018 07:00:00 19,9 17,1 19,6 22,1 25,1 21,3 8 5 15 8 SSW 1016,2 32 9 0,0
21.06.2018 06:00:00 18,9 17,2 18,4 21,8 25,6 21,3 11 6 17 9 SSW 1016,0 26 0 0,0
21.06.2018 05:00:00 17,9 16,3 17,0 22,2 26,1 21,3 8 5 13 7 SSW 1016,0 26 0 0,0
21.06.2018 04:00:00 17,3 16,4 15,7 22,9 26,7 21,2 5 3 8 4 SSW 1016,3 26 0 0,0
21.06.2018 03:00:00 17,6 16,6 16,9 23,8 27,3 21,2 5 3 6 3 S 1016,4 27 0 0,0
21.06.2018 02:00:00 18,3 17,2 17,2 24,7 28,0 21,2 3 1 4 2 SSW 1016,7 31 0 0,0
21.06.2018 01:00:00 19,3 17,4 18,2 25,7 28,7 21,2 4 2 10 5 SSW 1017,0 38 0 0,0
21.06.2018 00:00:00 20,1 18,0 18,9 27,0 29,5 21,2 2 1 6 3 SE 1017,2 35 0 0,0
20.06.2018 23:00:00 21,2 17,9 19,7 28,6 30,3 21,2 3 2 6 4 SW 1017,3 38 0 0,0
20.06.2018 22:00:00 23,2 17,9 22,4 30,7 31,0 21,2 5 3 8 4 SE 1016,9 70 12 0,0
20.06.2018 21:00:00 28,8 14,4 26,9 33,2 31,5 21,2 3 2 8 5 NNW 1016,6 70 56 0,0
20.06.2018 20:00:00 30,0 13,8 31,2 35,7 31,7 21,1 6 3 14 7 NNW 1016,8 70 60 0,0
20.06.2018 19:00:00 30,7 14,3 32,9 37,8 31,6 21,1 10 5 18 10 NNW 1017,1 50 60 0,0
20.06.2018 18:00:00 30,2 14,2 33,0 39,4 31,3 21,1 10 6 21 11 NNW 1017,4 41 60 0,0
20.06.2018 17:00:00 30,5 14,9 33,7 40,4 30,6 21,1 13 7 24 13 NW 1017,9 30 60 0,0
20.06.2018 16:00:00 29,6 14,7 34,4 40,7 29,6 21,1 10 6 21 11 NNW 1018,3 47 60 0,0
20.06.2018 15:00:00 29,6 15,7 34,6 40,2 28,4 21,1 9 5 22 12 NW 1018,9 17 60 0,0
20.06.2018 14:00:00 28,8 15,9 34,5 38,7 27,1 21,1 9 5 19 10 NW 1019,6 40 60 0,0
20.06.2018 13:00:00 27,2 15,8 32,6 36,4 25,8 21,1 11 6 21 11 NNW 1020,4 32 60 0,0
20.06.2018 12:00:00 26,8 15,7 32,0 33,8 24,5 21,1 10 5 15 8 N 1020,8 43 60 0,0
20.06.2018 11:00:00 25,5 16,2 29,5 30,2 23,4 21,1 8 4 17 9 ENE 1021,2 34 60 0,0
20.06.2018 10:00:00 23,5 15,6 26,4 26,5 22,7 21,0 10 5 19 11 ENE 1021,6 30 60 0,0
20.06.2018 09:00:00 21,7 15,4 24,2 23,2 22,4 21,0 13 7 20 11 NNE 1022,0 33 60 0,0
20.06.2018 08:00:00 19,4 14,9 21,2 20,7 22,4 21,0 12 7 16 9 NNE 1022,2 32 60 0,0
20.06.2018 07:00:00 17,4 14,9 16,9 19,1 22,7 21,0 10 5 14 8 NNE 1022,3 25 46 0,0
20.06.2018 06:00:00 16,0 14,6 15,0 18,9 23,1 21,0 10 5 13 7 NNE 1022,6 25 0 0,0
20.06.2018 05:00:00 15,9 14,7 14,6 19,3 23,6 20,9 8 5 11 6 NNE 1022,8 24 0 0,0
20.06.2018 04:00:00 14,5 14,0 13,3 19,9 24,2 20,9 6 3 7 4 NNE 1023,2 20 0 0,0
20.06.2018 03:00:00 14,9 14,2 13,7 20,7 24,8 20,9 3 2 4 2 NNE 1023,4 18 0 0,0
20.06.2018 02:00:00 15,6 14,9 14,0 21,5 25,4 20,9 0 0 5 3 N 1023,5 27 0 0,0
20.06.2018 01:00:00 16,2 15,1 14,9 22,5 26,0 20,9 2 1 4 2 ESE 1023,5 29 0 0,0
20.06.2018 00:00:00 16,7 15,5 15,6 23,6 26,7 20,9 0 0 5 3 N 1023,5 35 0 0,0
19.06.2018 23:00:00 17,9 15,9 17,0 25,0 27,5 20,9 4 2 10 5 E 1023,4 30 0 0,0
19.06.2018 22:00:00 20,8 15,9 19,0 26,7 28,2 20,9 7 4 13 7 NE 1023,1 58 13 0,0
19.06.2018 21:00:00 23,5 15,4 22,7 28,7 28,8 20,9 4 2 10 5 N 1022,8 61 21 0,0
19.06.2018 20:00:00 24,2 15,7 23,8 31,2 29,1 20,9 7 4 17 9 NNW 1022,9 53 33 0,0
19.06.2018 19:00:00 25,7 15,0 27,9 34,2 29,0 20,9 13 7 19 11 N 1022,9 46 54 0,0
19.06.2018 18:00:00 25,9 14,7 30,0 36,5 28,5 20,9 9 5 17 9 NNW 1023,1 41 59 0,0
19.06.2018 17:00:00 25,4 14,3 27,3 36,7 27,6 20,9 7 4 22 12 W 1023,2 34 48 0,0
19.06.2018 16:00:00 25,7 14,3 28,1 36,7 26,6 20,9 11 6 21 11 SW 1023,5 47 58 0,0
19.06.2018 15:00:00 25,5 14,7 29,0 33,5 25,7 20,9 11 6 24 13 WSW 1023,9 62 30 0,0
19.06.2018 14:00:00 24,3 14,5 27,0 32,4 24,9 20,9 12 7 25 14 SW 1024,2 33 26 0,0
19.06.2018 13:00:00 24,2 15,2 27,8 31,6 23,9 20,9 15 8 24 13 WSW 1024,4 56 45 0,0
19.06.2018 12:00:00 23,0 15,0 26,4 28,1 23,1 20,9 13 7 32 17 WSW 1024,6 40 25 0,0
19.06.2018 11:00:00 22,0 15,1 23,8 27,0 22,3 20,9 13 7 25 13 SW 1024,8 41 32 0,0
19.06.2018 10:00:00 21,5 14,9 23,1 25,0 21,7 20,9 16 8 26 14 SW 1025,0 41 56 0,0
19.06.2018 09:00:00 20,1 14,7 22,0 21,6 21,4 20,8 15 8 22 12 SW 1025,1 26 29 0,0
19.06.2018 08:00:00 18,5 15,0 19,1 19,5 21,4 20,8 9 5 16 9 SW 1024,7 40 7 0,0
19.06.2018 07:00:00 17,2 14,5 17,2 18,5 21,7 20,8 10 5 14 8 SW 1024,6 37 33 0,0
19.06.2018 06:00:00 15,3 13,9 14,4 18,1 22,1 20,8 7 4 10 6 SW 1024,5 29 0 0,0
19.06.2018 05:00:00 14,9 13,7 13,5 18,4 22,5 20,8 7 4 13 7 SSW 1024,3 32 0 0,0
19.06.2018 04:00:00 15,3 13,8 14,2 19,0 23,0 20,8 8 4 13 7 SSW 1024,1 32 0 0,0
19.06.2018 03:00:00 15,8 14,2 14,7 19,9 23,5 20,8 7 4 11 6 SW 1023,9 44 0 0,0
19.06.2018 02:00:00 16,4 14,6 16,0 20,7 23,9 20,8 8 4 10 5 WSW 1023,7 36 0 0,0
19.06.2018 01:00:00 16,6 14,3 16,5 21,2 24,4 20,8 6 4 9 5 SSW 1023,5 52 0 0,0
19.06.2018 00:00:00 15,4 14,3 14,6 21,6 25,0 20,8 5 3 6 3 SSW 1023,7 37 0 0,0
18.06.2018 23:00:00 16,5 14,4 15,2 22,7 25,6 20,8 4 2 7 4 SSE 1023,3 45 0 0,0
18.06.2018 22:00:00 18,0 14,6 16,4 24,3 26,2 20,8 4 2 7 4 SW 1022,8 14 12 0,0
18.06.2018 21:00:00 21,4 13,0 20,1 26,2 26,6 20,8 5 3 9 5 W 1022,3 70 45 0,0
18.06.2018 20:00:00 22,2 12,4 22,0 27,9 26,9 20,8 5 3 16 9 WNW 1022,2 69 4 0,0
18.06.2018 19:00:00 22,7 12,4 23,8 29,5 27,0 20,8 8 5 16 9 NW 1022,3 70 3 0,0
18.06.2018 18:00:00 23,1 12,7 24,5 31,0 26,8 20,8 10 6 16 9 W 1022,2 66 5 0,0
18.06.2018 17:00:00 22,8 11,9 24,3 32,2 26,4 20,8 13 7 22 12 W 1022,3 39 18 0,0
18.06.2018 16:00:00 22,7 11,2 24,7 31,6 26,0 20,8 14 8 24 13 W 1022,5 22 6 0,0
18.06.2018 15:00:00 23,1 11,2 25,5 30,7 25,6 20,7 15 8 26 14 WSW 1022,3 35 8 0,0
18.06.2018 14:00:00 21,9 10,2 23,8 31,9 24,8 20,7 12 7 25 14 W 1022,6 35 33 0,0
18.06.2018 13:00:00 22,1 10,8 25,1 31,3 23,9 20,7 13 7 27 14 W 1022,8 23 27 0,0
18.06.2018 12:00:00 21,4 11,0 24,4 29,3 23,0 20,7 14 8 22 12 WSW 1022,9 23 23 0,0
18.06.2018 11:00:00 21,0 10,5 24,9 26,9 22,2 20,7 13 7 26 14 WSW 1023,0 28 49 0,0
18.06.2018 10:00:00 20,2 11,1 22,8 24,5 21,6 20,7 11 6 19 10 SW 1022,9 13 60 0,0
18.06.2018 09:00:00 18,5 11,1 20,8 21,2 21,5 20,7 10 5 14 8 SW 1022,9 21 24 0,0
18.06.2018 08:00:00 17,0 13,1 17,4 19,6 21,5 20,7 9 5 12 7 SW 1022,7 33 0 0,0
18.06.2018 07:00:00 16,2 13,4 16,5 18,9 21,7 20,6 6 3 11 6 WSW 1022,5 30 6 0,0
18.06.2018 06:00:00 15,2 13,6 15,1 18,7 22,0 20,6 6 3 8 5 SSW 1022,4 26 0 0,0
18.06.2018 05:00:00 14,8 13,5 14,2 19,0 22,4 20,6 4 2 8 5 SSW 1022,2 23 0 0,0
18.06.2018 04:00:00 15,5 13,7 15,3 19,4 22,7 20,6 6 3 8 5 SW 1022,2 32 0 0,0
18.06.2018 03:00:00 15,3 13,0 15,0 19,7 23,1 20,6 4 2 12 6 SSW 1022,2 32 0 0,0
18.06.2018 02:00:00 16,1 13,7 15,4 20,4 23,6 20,6 4 2 8 4 SSW 1021,9 37 0 0,0
18.06.2018 01:00:00 16,7 12,8 16,2 20,8 24,0 20,6 6 3 11 6 WSW 1021,7 42 0 0,0
18.06.2018 00:00:00 17,0 12,5 16,3 21,4 24,6 20,5 9 5 11 6 W 1021,4 46 0 0,0
17.06.2018 23:00:00 17,1 12,4 15,4 22,2 25,1 20,5 7 4 10 5 W 1020,9 48 0 0,0
17.06.2018 22:00:00 18,2 12,2 16,0 23,4 25,7 20,5 5 3 16 9 W 1020,6 53 0 0,0
17.06.2018 21:00:00 20,3 11,7 19,7 25,5 26,1 20,5 12 7 25 14 WNW 1019,9 52 15 0,0
17.06.2018 20:00:00 21,3 12,7 21,6 26,6 26,4 20,5 10 6 19 11 W 1018,9 48 1 0,0
17.06.2018 19:00:00 21,8 12,7 22,1 27,8 26,6 20,5 11 6 20 11 W 1018,6 52 0 0,0
17.06.2018 18:00:00 22,3 12,1 22,8 29,5 26,6 20,5 11 6 26 14 W 1018,2 50 9 0,0
17.06.2018 17:00:00 22,8 12,2 24,2 29,7 26,4 20,5 16 9 22 12 W 1018,3 39 1 0,0
17.06.2018 16:00:00 22,4 12,8 24,1 30,4 26,3 20,5 10 5 20 11 WSW 1018,2 48 7 0,0
17.06.2018 15:00:00 22,2 12,1 23,5 30,2 26,0 20,4 14 7 27 15 WSW 1018,4 29 11 0,0
17.06.2018 14:00:00 22,7 12,1 25,3 32,8 25,2 20,4 14 7 26 14 W 1018,3 32 27 0,0
17.06.2018 13:00:00 22,9 11,8 28,6 31,2 24,4 20,4 14 7 24 13 SW 1018,4 20 30 0,0
17.06.2018 12:00:00 22,3 11,5 25,2 28,2 23,8 20,4 14 8 24 13 WSW 1018,7 33 3 0,0
17.06.2018 11:00:00 21,6 11,3 23,7 28,6 23,1 20,4 10 5 19 10 WSW 1018,5 40 38 0,0
17.06.2018 10:00:00 21,5 11,9 24,2 25,7 22,5 20,3 7 4 16 8 W 1018,6 54 60 0,0
17.06.2018 09:00:00 20,1 11,8 22,9 23,1 22,2 20,3 8 5 14 8 WNW 1018,6 21 60 0,0
17.06.2018 08:00:00 18,7 12,6 19,5 20,6 22,3 20,3 5 3 10 5 W 1018,2 48 60 0,0
17.06.2018 07:00:00 17,1 14,5 16,5 19,5 22,6 20,3 5 3 10 6 WSW 1017,8 37 10 0,0
17.06.2018 06:00:00 16,9 14,2 16,0 19,8 23,0 20,2 8 4 11 6 WSW 1017,6 37 0 0,0
17.06.2018 05:00:00 17,7 14,8 17,0 20,3 23,4 20,2 8 4 15 8 W 1017,2 38 0 0,0
17.06.2018 04:00:00 17,4 15,2 17,1 20,8 23,8 20,2 6 4 11 6 WSW 1016,9 31 0 0,0
17.06.2018 03:00:00 17,5 15,1 17,1 21,1 24,3 20,2 7 4 10 5 WSW 1016,7 31 0 0,0
17.06.2018 02:00:00 17,9 15,0 17,1 21,5 24,8 20,2 7 4 11 6 SSW 1016,4 33 0 0,0
17.06.2018 01:00:00 18,1 15,2 17,5 22,3 25,5 20,2 8 4 14 7 SSW 1016,4 29 0 0,0
17.06.2018 00:00:00 17,5 15,2 16,4 23,1 26,2 20,2 9 5 20 11 SSW 1015,9 20 0 0,0
16.06.2018 23:00:00 18,5 15,5 16,2 24,7 27,0 20,2 6 3 8 4 SSE 1015,1 21 0 0,0
16.06.2018 22:00:00 19,2 15,7 17,9 26,7 27,6 20,2 4 2 4 2 SSE 1014,8 23 7 0,0
16.06.2018 21:00:00 24,5 15,0 23,1 29,3 28,1 20,2 3 2 9 5 W 1014,1 35 60 0,0
16.06.2018 20:00:00 25,4 13,2 25,5 31,7 28,3 20,2 8 4 15 8 W 1013,9 43 60 0,0
16.06.2018 19:00:00 26,4 10,4 27,8 34,2 28,1 20,2 10 5 17 9 W 1013,6 45 60 0,0
16.06.2018 18:00:00 27,0 9,3 29,3 36,1 27,5 20,2 9 5 14 8 WSW 1013,8 54 60 0,0
16.06.2018 17:00:00 26,3 10,2 29,8 36,1 26,7 20,2 9 5 19 11 W 1014,2 43 46 0,0
16.06.2018 16:00:00 26,0 11,2 31,9 35,1 25,8 20,2 6 3 16 9 NNW 1014,5 35 48 0,0
16.06.2018 15:00:00 25,5 10,7 28,8 34,6 24,8 20,2 7 4 11 6 S 1014,7 30 60 0,0
16.06.2018 14:00:00 24,6 8,4 28,1 33,6 23,6 20,2 8 5 14 8 SSW 1015,0 21 60 0,0
16.06.2018 13:00:00 23,5 12,5 28,3 31,6 22,3 20,2 8 4 13 7 WSW 1015,7 18 59 0,0
16.06.2018 12:00:00 22,2 14,1 26,1 28,7 21,2 20,1 8 4 13 7 SW 1016,1 27 56 0,0
16.06.2018 11:00:00 20,7 13,9 23,7 24,0 20,5 20,1 6 3 9 5 S 1016,2 21 14 0,0
16.06.2018 10:00:00 18,1 13,4 19,6 21,0 20,2 20,1 4 2 7 4 S 1016,5 16 0 0,0
16.06.2018 09:00:00 16,7 13,3 17,9 19,3 20,0 20,1 3 2 5 3 NNW 1016,5 15 0 0,0
16.06.2018 08:00:00 14,9 12,9 15,7 17,9 20,1 20,1 3 2 5 3 SSE 1016,2 14 0 0,0
16.06.2018 07:00:00 13,6 12,5 13,5 17,0 20,3 20,1 3 2 5 3 SE 1016,3 11 0 0,0
16.06.2018 06:00:00 11,4 11,2 11,2 16,2 20,7 20,1 3 2 4 2 S 1016,2 5 0 0,0
16.06.2018 05:00:00 11,9 11,6 10,5 16,6 21,2 20,0 3 2 5 3 NE 1016,0 6 0 0,0
16.06.2018 04:00:00 12,1 11,9 10,8 17,2 21,7 20,0 4 2 5 3 SSW 1016,1 4,0 0 0,0
16.06.2018 03:00:00 12,4 12,1 11,2 18,0 22,3 20,0 0 0 4 2 N 1016,2 6 0 0,0
16.06.2018 02:00:00 13,2 12,6 11,9 18,8 22,9 20,0 3 2 4 2 ESE 1016,6 10 0 0,0
16.06.2018 01:00:00 13,7 13,0 12,8 19,7 23,5 20,0 2 1 4 2 E 1016,7 12 0 0,0
16.06.2018 00:00:00 14,6 13,6 13,4 20,8 24,2 20,0 2 1 5 3 SSE 1016,6 11 0 0,0
15.06.2018 23:00:00 16,5 13,7 14,3 22,2 24,9 20,0 4 2 11 6 S 1016,6 20 0 0,0
15.06.2018 22:00:00 19,2 13,5 17,5 23,9 25,4 20,0 8 5 16 8 NE 1016,4 26 0 0,0
15.06.2018 21:00:00 20,9 13,2 19,9 25,9 25,9 20,0 10 6 20 11 N 1016,0 29 34 0,0
15.06.2018 20:00:00 22,6 12,5 23,5 28,3 26,0 20,0 10 6 18 10 N 1015,9 42 46 0,0
15.06.2018 19:00:00 23,4 12,0 25,4 30,3 25,8 20,1 10 6 20 11 NNW 1015,6 30 60 0,0
15.06.2018 18:00:00 23,7 12,1 26,9 31,3 25,3 20,1 11 6 18 10 NNW 1015,7 30 60 0,0

tt = Température de l'air
td = dewpoint
tt 5cm = Température de l'air 5cm
tt -5cm = Température de l'air -5cm
tt -20cm = Température de l'air -20cm
tt -100cm = Température de l'air -100cm
ff = Vitesse du vent
fx = gusts
dd = Direction du vent
ppp = reduced air pressure
vv = visibility
sd = Ensoleillement
rr = Quantités de précipitations

stations d'obs. à proximité